Mercury, NV

7:27 AM PDT on September 30, 2016 (GMT -0700)
Mercury

Weather History for KDRA - April, 2013

Change the Weather History Date:

Saturday, April 13, 2013

  Actual Average Record
Temperature  
Mean Temperature 67 °F 59 °F  
Max Temperature 82 °F 73 °F 89 °F (2002)
Min Temperature 53 °F 45 °F 30 °F (1983)
Degree Days  
Heating Degree Days 0    
Cooling Degree Days 2    
Growing Degree Days 17 (Base 50)    
Moisture  
Dew Point 22 °F    
Average Humidity 15    
Maximum Humidity 27    
Minimum Humidity 4    
Precipitation  
Precipitation 0.00 in 0.01 in 0.26 in (1988)
Month to date precipitation 0.17  
Year to date precipitation 2.45  
Sea Level Pressure  
Sea Level Pressure 29.59 in    
Wind  
Wind Speed 10 mph (SW)    
Max Wind Speed 23 mph    
Max Gust Speed 34 mph    
Visibility 10 miles    
Events      
T = Trace of Precipitation, MM = Missing Value Source: NWS Daily Summary

Daily Weather History Graph

Daily Weather History Graph

Search for Another Location

Airport or City:

Trip Planner

Search our weather history database for the weather conditions in past years. The results will help you decide how hot, cold, wet, or windy it might be!

Date:

Astronomy

Apr. 13, 2013 Rise Set
Actual Time 6:12 AM PDT 7:17 PM PDT
Civil Twilight 5:46 AM PDT 7:43 PM PDT
Nautical Twilight 5:14 AM PDT 8:15 PM PDT
Astronomical Twilight 4:41 AM PDT 8:48 PM PDT
Moon 8:11 AM PDT (4/13) 10:40 PM PDT (4/13)
Length of Visible Light 13h 57m
Length of Day
13h 04m
Waxing Crescent, 11% of the Moon is Illuminated
Apr 13
Waxing Crescent
Apr 18
First Quarter
Apr 25
Full
May 2
Last Quarter
May 9
New

Hourly Weather History & Observations

Time (PDT) Temp. Dew Point Humidity Pressure Visibility Wind Dir Wind Speed Gust Speed Precip Events Conditions
12:52 AM 57.0 °F 16.0 °F 20% 29.71 in 10.0 mi Calm Calm - N/A   Clear
1:52 AM 57.9 °F 17.1 °F 20% 29.70 in 10.0 mi East 6.9 mph - N/A   Clear
2:52 AM 59.0 °F 18.0 °F 20% 29.68 in 10.0 mi NE 4.6 mph - N/A   Clear
3:52 AM 57.0 °F 19.9 °F 24% 29.67 in 10.0 mi ENE 3.5 mph - N/A   Clear
4:52 AM 55.0 °F 21.0 °F 27% 29.67 in 10.0 mi North 3.5 mph - N/A   Clear
5:52 AM 57.0 °F 21.0 °F 25% 29.67 in 10.0 mi NNE 5.8 mph - N/A   Clear
7:52 AM 64.9 °F 21.9 °F 19% 29.67 in 10.0 mi Calm Calm - N/A   Clear
8:52 AM 68.0 °F 26.1 °F 21% 29.69 in 10.0 mi SW 16.1 mph - N/A   Clear
9:52 AM 70.0 °F 26.1 °F 19% 29.68 in 10.0 mi West 17.3 mph - N/A   Clear
10:52 AM 75.9 °F 24.1 °F 15% 29.65 in 10.0 mi WSW 20.7 mph 28.8 mph N/A   Clear
11:52 AM 78.1 °F 18.0 °F 10% 29.64 in 10.0 mi SW 17.3 mph 25.3 mph N/A   Clear
12:52 PM 79.0 °F 18.0 °F 10% 29.60 in 10.0 mi SW 23.0 mph 32.2 mph N/A   Clear
1:52 PM 81.0 °F 19.9 °F 10% 29.58 in 10.0 mi SW 18.4 mph 27.6 mph N/A   Clear
2:52 PM 81.0 °F 21.9 °F 11% 29.54 in 10.0 mi SW 17.3 mph 32.2 mph N/A   Clear
3:52 PM 81.0 °F 19.0 °F 10% 29.51 in 10.0 mi SW 19.6 mph 34.5 mph N/A   Clear
4:52 PM 80.1 °F 19.9 °F 11% 29.49 in 10.0 mi SSW 21.9 mph 32.2 mph N/A   Clear
5:52 PM 80.1 °F 19.0 °F 10% 29.47 in 10.0 mi SSW 23.0 mph 29.9 mph N/A   Clear
6:52 PM 78.1 °F 19.9 °F 11% 29.46 in 10.0 mi SSW 18.4 mph 23.0 mph N/A   Clear
7:52 PM 75.9 °F 19.0 °F 12% 29.45 in 10.0 mi SSW 15.0 mph 25.3 mph N/A   Clear
8:52 PM 73.9 °F 24.1 °F 16% 29.46 in 10.0 mi SSW 20.7 mph 28.8 mph N/A   Clear
9:52 PM 73.0 °F 27.0 °F 18% 29.48 in 10.0 mi SW 16.1 mph 25.3 mph N/A   Clear
10:52 PM 70.0 °F 27.0 °F 20% 29.50 in 10.0 mi West 10.4 mph - N/A   Clear
11:52 PM 69.1 °F 28.0 °F 22% 29.53 in 10.0 mi WSW 13.8 mph - N/A   Clear